This is the latest recevied weather packets stored in our database for station/object G4KVI. If no packets are shown the sender has not sent any weather packets the latest 10 day(s).
| Time | Temp. | Humidity | Pressure | Rain* | Wind** | Luminosity | Snow |
|---|---|---|---|---|---|---|---|
| 1787503204 | 23.33° C | 33% | 1025 hPa | 0 mm | - | 278 W/m² | - |
| 1787502904 | 22.78° C | 34% | 1025.1 hPa | 0 mm | - | 299 W/m² | - |
| 1787502604 | 22.78° C | 33% | 1025.1 hPa | 0 mm | - | 154 W/m² | - |
| 1787502304 | 22.78° C | 33% | 1025.2 hPa | 0 mm | - | 150 W/m² | - |
| 1787502004 | 23.33° C | 32% | 1025.1 hPa | 0 mm | - | 125 W/m² | - |
| 1787501704 | 23.89° C | 32% | 1025.3 hPa | 0 mm | - | 331 W/m² | - |
| 1787501404 | 23.89° C | 32% | 1025.3 hPa | 0 mm | - | 355 W/m² | - |
| 1787501104 | 23.33° C | 32% | 1025.4 hPa | 0 mm | - | 375 W/m² | - |
| 1787500804 | 23.33° C | 32% | 1025.2 hPa | 0 mm | - | 366 W/m² | - |
| 1787500504 | 23.33° C | 33% | 1025.3 hPa | 0 mm | - | 383 W/m² | - |
| 1787500204 | 23.33° C | 33% | 1025.5 hPa | 0 mm | - | 400 W/m² | - |
| 1787499904 | 24.44° C | 32% | 1025.5 hPa | 0 mm | - | 405 W/m² | - |
| 1787499604 | 23.89° C | 32% | 1025.5 hPa | 0 mm | - | 416 W/m² | - |
| 1787499304 | 23.33° C | 33% | 1025.6 hPa | 0 mm | - | 415 W/m² | - |
| 1787499004 | 23.33° C | 34% | 1025.3 hPa | 0 mm | - | 423 W/m² | - |
| 1787498704 | 23.33° C | 34% | 1025.7 hPa | 0 mm | - | 438 W/m² | - |
| 1787498404 | 23.33° C | 34% | 1025.8 hPa | 0 mm | - | 450 W/m² | - |
| 1787498104 | 22.78° C | 35% | 1025.6 hPa | 0 mm | - | 472 W/m² | - |
| 1787497804 | 22.22° C | 36% | 1025.8 hPa | 0 mm | - | 304 W/m² | - |
| 1787497504 | 22.22° C | 36% | 1026.2 hPa | 0 mm | - | 142 W/m² | - |
| 1787497204 | 22.22° C | 35% | 1025.8 hPa | 0 mm | - | 165 W/m² | - |
| 1787496904 | 22.22° C | 35% | 1026 hPa | 0 mm | - | 182 W/m² | - |
| 1787496604 | 22.78° C | 35% | 1026 hPa | 0 mm | - | 181 W/m² | - |
| 1787496304 | 22.78° C | 34% | 1025.9 hPa | 0 mm | - | 184 W/m² | - |
| 1787496004 | 22.78° C | 34% | 1025.9 hPa | 0 mm | - | 163 W/m² | - |
* Rain latest hour (hover to see other rain measurements)
** Current wind speed in m/s (hover to see current wind gust speed)